HULIANWANG DIGUI 16A

Last updated on Sat Dec 13 2025 00:02:09 GMT+0000 (Coordinated Universal Time)

1 67059U 25295A 25346.21281652 -.00000152 00000+0 34347-5 0 9991 2 67059 50.0035 14.4753 0013628 247.7813 112.1656 14.25879966 41
UTC large
Height (km)
Speed (km/s)
/
Latitude / Longitude
Inclination (degrees)
Orbital Period (minutes)
Azimuth
Elevation
Range (km)
Doppler Factor

Next 0 passes for location: London (51.5072 / 0.1276)

Sorry there are no passes over London.